sat.trackr.live / text

‹ back to catalog

STARLINK-37229

NORAD 69659 · 2026-143L

PAYLOAD ACTIVE UNKNOWN

§ Identity

Operator
Country
US
Launch date
2026-06-21
Launch site
AFWTR
Launch vehicle
Mass (kg)
RCS (m²)

Purposes: comms

External: N2YO · Heavens-Above · Gunter

§ Orbital elements

Epoch: 2026-09-19T21:05:51.081216Z

Period
93.91 min
Inclination
97.2861°
Eccentricity
0.0000662
Mean motion
15.33450691 rev/d
Perigee alt
465.1 km
Apogee alt
466.0 km
Semi-major
6,843.7 km
B*
3.6318e-4
RAAN
306.0218°
Arg perigee
86.4878°
Mean anomaly
273.6440°
Rev number
1,505

§ Raw data

STARLINK-372291 69659U 26143L   26262.87906344  .00011670  00000+0  36318-3 0  99982 69659  97.2861 306.0218 0000662  86.4878 273.6440 15.33450691 15059

JSON: /api/v1/satellites/69659 · /tle

For live sub-satellite position, see the globe view (requires WebGL).

§ Visibility from observer

Set your observer location to see the next 7 days of passes ≥ 10°. The values pass through the URL so the page stays shareable.

No JS? Fill the form by hand. The geolocation button needs JavaScript.